Lid_Strength_Index
2 2 1 1 0 -0 -0 0 1 0 1 1 1 1 1 1 0 -0 -1 -1 -1 -1 -0 -0 -0 -0 -0 -0 -0 -0 0 1 -0 1 1 1 -0 -0 -0 -0 -1 -1 -1
3 2 1 1 1 0 0 0 1 1 1 1 1 1 1 0 0 -0 -1 -1 -1 -1 -0 0 0 0 0 -0 -0 0 1 1 0 2 2 3 2 1 0 -0 -0 -1 -1
3 2 2 1 1 1 0 0 0 1 1 0 0 1 1 1 1 1 0 -0 -1 -1 -1 -0 -0 0 0 1 0 0 0 2 1 1 2 3 4 2 1 0 0 -0 -0
2 2 2 1 1 1 0 -0 -0 -0 0 0 1 1 2 3 2 1 1 0 -0 -0 -0 -0 -0 0 0 0 0 0 0 1 2 1 0 1 2 4 5 1 1 0 0
2 2 2 1 1 0 0 -0 -0 0 0 0 1 1 2 1 1 1 1 0 0 -0 -0 -0 -0 0 0 0 0 0 0 1 1 1 1 2 2 2 3 5 3 1 0
2 2 1 1 1 1 0 0 0 0 0 0 1 1 1 1 2 1 2 1 1 0 -0 -0 -0 0 -0 0 0 0 0 1 1 1 1 2 3 3 3 4 3 3 1
3 3 2 2 2 1 1 1 0 1 1 1 1 1 1 1 1 1 1 1 1 1 0 -0 -0 -0 -0 -0 -0 0 0 0 1 1 1 1 2 1 2 3 3 3 2
3 3 2 2 2 1 1 1 1 1 1 1 1 1 1 1 1 1 1 1 1 1 -0 -0 -0 -0 -0 -0 -0 0 0 0 0 0 0 1 1 1 1 2 3 4 3
3 3 2 2 2 1 1 1 1 1 1 1 1 1 1 1 1 0 0 1 -0 0 -0 -0 -0 -0 -0 -0 -0 0 0 0 0 0 0 1 1 0 0 1 1 3 5
3 3 2 2 1 1 1 1 1 1 1 1 1 2 1 1 1 0 1 0 -0 -0 -0 0 -0 -0 -0 -0 -0 0 -0 0 0 0 0 0 1 1 0 1 1 1 3
3 3 2 2 1 1 1 1 1 1 1 1 1 1 1 1 1 1 0 0 -0 -0 0 -0 0 0 0 -0 0 0 0 1 1 0 0 1 0 1 1 0 1 1 2
4 3 2 2 2 2 1 1 1 1 1 0 1 1 1 1 0 0 0 -0 -0 -0 -0 -0 -0 0 0 -0 0 0 0 1 1 1 0 0 0 0 -0 0 0 1 1
3 3 3 3 3 2 1 1 1 1 1 1 1 1 1 1 1 0 -0 -0 -0 -0 -0 -0 -0 -0 -0 -0 -0 -0 -0 -0 -0 -0 0 -0 -0 0 0 0 0 1 1
4 4 3 3 3 2 2 1 1 1 1 1 1 1 1 1 1 0 0 -0 -0 -0 -0 -0 -0 -0 -0 -0 -0 -0 -0 -0 -0 -0 -1 -0 -0 -0 -0 0 0 0 1
4 3 3 3 2 2 2 1 1 1 2 3 1 1 1 1 0 0 0 -0 -0 -0 -0 -0 -0 -0 -0 0 -0 -0 -0 -0 -0 -0 -0 -1 -0 1 1 0 -0 0 1
4 3 3 2 3 2 2 2 1 2 2 4 3 2 1 1 0 0 0 0 0 -0 -0 0 0 -0 0 4 3 1 -0 -0 -0 0 -0 -1 0 1 3 3 4 2 1
5 4 3 3 2 2 2 2 1 1 2 3 4 2 2 1 1 1 0 1 0 0 0 -0 -0 0 -0 5 5 4 -0 -0 -0 -0 -0 -0 -0 -0 -0 2 4 4 7
7 6 5 4 3 2 2 1 1 1 2 2 4 4 3 2 1 1 1 1 1 1 1 1 0 0 0 5 5 4 -1 -0 -0 -1 -1 -1 -0 -0 -0 -0 0 -0 -0
8 8 6 7 3 3 2 2 2 1 2 2 3 3 4 4 3 1 1 1 1 1 1 1 1 1 0 6 6 3 -1 -0 -0 -0 -1 -1 -0 3 7 0 1 0 0
10 8 9 7 7 6 4 4 3 2 2 2 2 2 2 2 3 2 1 1 1 1 1 1 0 2 0 7 7 4 0 0 0 -1 -1 4 1 5 7 1 1 1 1
10 8 8 8 7 6 6 7 5 4 3 2 2 1 1 1 1 1 1 1 1 1 1 1 0 0 0 0 7 7 0 0 1 1 0 -0 5 8 9 10 1 1 1
11 10 9 9 8 7 7 7 9 8 4 3 3 2 1 1 2 1 1 1 1 2 2 1 1 1 -0 4 7 8 7 3 0 1 0 0 7 8 10 7 6 9 9
12 11 10 10 10 9 9 10 8 8 8 6 5 3 2 1 1 1 1 2 2 2 2 2 2 2 1 0 7 8 8 7 2 0 2 5 7 8 6 8 10 11 2
13 12 12 11 11 11 11 11 9 8 8 8 6 5 4 3 2 1 1 2 2 2 2 2 2 2 1 1 0 0 1 6 4 3 1 2 4 7 5 3 2 1 1
13 12 12 12 10 9 9 9 9 9 10 8 7 6 6 4 3 2 1 2 1 2 2 2 1 2 2 1 3 2 1 0 2 1 0 1 1 1 1 1 1 1 1
14 13 12 11 9 8 8 9 9 9 10 9 8 8 7 6 5 4 2 6 6 7 7 7 3 1 6 7 7 6 7 7 9 2 1 2 2 2 1 2 2 2 3